Regional Weather Roundup
Issued by NWS

Home | Current Version | Previous Version | Graphics & Text | Print | Product List | Glossary On
Versions: 1 2 3 4 5 6 7 8 9 10 11 12 13 14 15 16 17 18 19 20 21 22 23 24 25 26 27 28 29 30 31 32 33 34 35 36 37 38 39 40 41 42 43 44 45 46 47 48 49 50
616
ASUS43 KLOT 251903
RWRIL

ILLINOIS REGIONAL WEATHER ROUNDUP
NATIONAL WEATHER SERVICE CHICAGO/ROMEOVILLE IL
200 PM CDT THU AUG 25 2016

NOTE: "FAIR" INDICATES FEW OR NO CLOUDS BELOW 12,000 FEET WITH NO
SIGNIFICANT WEATHER AND/OR OBSTRUCTIONS TO VISIBILITY.

* THESE STATIONS ARE NOT UNDER NWS QUALITY CONTROL. THEY ALSO MAY NOT
  REPORT WEATHER SUCH AS PRECIPITATION OR FOG.

ILZ001-002-007-009-015-016-024-252000-
NORTHWEST ILLINOIS

CITY           SKY/WX    TMP DP  RH WIND       PRES   REMARKS
MOLINE         MOSUNNY   78  66  66 NW8       30.05F HX  80
STERLING*      CLOUDY    79  67  66 W8        30.07S HX  81
SAVANNA*       CLOUDY    78  62  58 NW5       30.07S
$$

ILZ003-004-008-010-011-017-018-252000-
NORTH CENTRAL ILLINOIS

CITY           SKY/WX    TMP DP  RH WIND       PRES   REMARKS
ROCKFORD       CLOUDY    79  63  57 W6        30.07F HX  80
FREEPORT*      CLOUDY    77  62  60 CALM      30.09S
ROCHELLE*      CLOUDY    76  64  65 NW5       30.07S
$$

ILZ005-006-012>014-019>023-252000-
NORTHEAST ILLINOIS

CITY           SKY/WX    TMP DP  RH WIND       PRES   REMARKS
CHICAGO-OHARE  PTSUNNY   83  67  58 NW5       30.03F HX  85
CHICAGO-MIDWAY CLOUDY    82  68  62 N8        30.03F HX  85
AURORA         MOSUNNY   82  68  62 W9        30.05F HX  85
LANSING*       CLOUDY    80  73  78 CALM      30.04S HX  85
JOLIET*        MOSUNNY   83  69  62 CALM      30.04F HX  87
WAUKEGAN       CLOUDY    81  65  58 W7        30.03S HX  83
DUPAGE AIRPORT CLOUDY    83  61  47 NW7       30.04F HX  83
KANKAKEE*      PTSUNNY   82  72  70 W6        30.06F HX  87
WHEELING       PTSUNNY   82  64  54 VRB5      30.05R HX  83
MORRIS*        MOSUNNY   81  69  67 W3        30.04S HX  84
ROMEOVILLE*    MOSUNNY   81  73  78 W5        30.04F HX  85
NORTHERLY ISL    N/A     75  66  73 CALM        N/A
$$

LMZ740>746-252000-
SOUTHERN LAKE MICHIGAN

STATION/POSITION SKY/WX   TEMP    WIND        PRES    VSBY  WAVE
                          AIR SEA DIR/SP/G                  HT/PER
                          (F)     (DEG/KT/KT) (MB)    (MI)  (FT/S)
SOUTHERN BUOY              71 75  330/ 10/ 12 1016.2          2/ 3
WILMETTE HARBOR            73 65  120/  2/  2   N/A           1
HARRISON CRIB              74      40/  4/  4   N/A
BURNHAM HARBOR             76      70/  1/  4   N/A
CALUMET HARBOR             72      30/  4/  6 1017.0S
BURNS HARBOR               73     340/  4/ 10 1017.9R
MICHIGAN CITY              74     270/  5/  5   N/A
MICHIGAN CITY 6N           73 74  310/  6/  8   N/A           1/ 3
ST. JOSEPH                 74 75  300/  8/ 10 1016.8R         2/ 4
$$

ILZ025>027-034>036-040-047-049-050-058-095>099-252000-
WEST-CENTRAL ILLINOIS

CITY           SKY/WX    TMP DP  RH WIND       PRES   REMARKS
QUINCY         CLOUDY    80  72  76 N3        30.06F HX  84
GALESBURG*     CLOUDY    78  70  77 CALM      30.07F HX  80
MACOMB*        MOSUNNY   78  71  78 CALM      30.09F HX  80
JACKSONVILLE*  PTSUNNY   84  72  66 W7        30.06F HX  90
PITTSFIELD*    PTSUNNY   85  71  63 W7        30.07F HX  90
$$

ILZ028>032-037-038-041>044-048-051>054-059>061-252000-
CENTRAL ILLINOIS

CITY           SKY/WX    TMP DP  RH WIND       PRES   REMARKS
PONTIAC        CLOUDY    82  74  78 W6        30.06F HX  88
BLOOMINGTON    CLOUDY    78  70  76 W8        30.09F HX  80
DECATUR        MOSUNNY   86  70  58 SW12      30.07F HX  90
PEORIA         CLOUDY    80  73  79 NW5       30.06F HX  84
LACON*         CLOUDY    79  70  72 SW6       30.05S HX  82
LINCOLN*       CLOUDY    82  73  75 N5        30.06F HX  87
SPRINGFIELD    MOSUNNY   86  71  60 SW7       30.06F HX  91
TAYLORVILLE    CLOUDY    83  73  70 W5        30.08S HX  89
$$

ILZ033-039-045-046-055>057-062-063-252000-
EAST-CENTRAL ILLINOIS

CITY           SKY/WX    TMP DP  RH WIND       PRES   REMARKS
CHAMPAIGN      PTSUNNY   83  72  69 SW10G16   30.08F HX  88
RANTOUL*       PTSUNNY   83  74  74 SW5       30.08S HX  89
MATTOON        PTSUNNY   85  69  58 SW8       30.08F HX  89
PARIS*         MOSUNNY   86  72  63 SW3       30.09S HX  92
$$

ILZ079-100>102-252000-
SOUTHWEST ILLINOIS

CITY           SKY/WX    TMP DP  RH WIND       PRES   REMARKS
ALTON          PTSUNNY   86  72  62 CALM      30.06F HX  92
BELLEVILLE     MOSUNNY   92  72  51 SW8       30.04F HX  99
CAHOKIA*       MOSUNNY   91  71  51 VRB6      30.05F HX  97
SPARTA*        MOSUNNY   89  75  63 SW8       30.08F HX  99
$$

ILZ064>066-069>071-074>076-080>082-084>086-088>090-092>094-252000-
SOUTH-CENTRAL ILLINOIS

CITY           SKY/WX    TMP DP  RH WIND       PRES   REMARKS
CARBONDALE     MOSUNNY   87  73  62 SW6       30.09F HX  94
EFFINGHAM*     PTSUNNY   87  77  72 W3        30.09F HX  99
MARION         MOSUNNY   91  73  55 SW9       30.10F HX 100
MT. VERNON     PTSUNNY   91  73  55 W10       30.08F HX 100
CENTRALIA*     SUNNY     90  76  65 S8        30.06F HX 101
SALEM*         MOSUNNY   89  75  63 SW6       30.08F HX  99
$$

ILZ067-068-072-073-078-083-087-091-252000-
SOUTHEAST ILLINOIS

CITY           SKY/WX    TMP DP  RH WIND       PRES   REMARKS
LAWRENCEVILLE  PTSUNNY   90  76  63 W8        30.08S HX 101
FLORA*         PTSUNNY   89  77  68 SW7       30.08F HX 102
FAIRFIELD*     PTSUNNY   88  75  66 SW6       30.07F HX  98
HARRISBURG*    MOSUNNY   91  73  55 W12       30.09S HX 100
ROBINSON*      MOSUNNY   88  77  71 SW8       30.09S HX 100
CARMI*         MOSUNNY   90  77  64 S6        30.07F HX 103
$$

ABBREVIATIONS USED IN REMARKS
   TC - TEMPERATURE IN CELSIUS
  WCI - WIND CHILL INDEX
   HX - HEAT INDEX
  VSB - VISIBILITY
$$





USA.gov is the U.S. government's official web portal to all federal, state and local government web resources and services.